Regional Weather Roundup
Issued by NWS

Home | Current Version | Previous Version | Text Only | Print | Product List | Glossary On
Versions: 1 2 3 4 5 6 7 8 9 10 11 12 13 14 15 16 17 18 19 20 21 22 23 24 25 26 27 28 29 30 31 32 33 34 35 36 37 38 39 40 41 42 43 44 45 46 47 48 49 50
000
ASUS43 KDTX 220110
RWRMI
MICHIGAN HOURLY REGIONAL WEATHER ROUNDUP
NATIONAL WEATHER SERVICE DETROIT/PONTIAC MI
900 PM EDT SUN SEP 21 2014

NOTE: "FAIR" INDICATES FEW OR NO CLOUDS BELOW 12,000 FEET WITH NO
SIGNIFICANT WEATHER AND/OR OBSTRUCTION TO VISIBILITY.

MIZ047>049-052>055-059>063-066>070-074>076-081>083-220200-
SOUTHEAST LOWER MICHIGAN

CITY           SKY/WX    TMP DP  RH WIND       PRES   REMARKS
ADRIAN         CLOUDY    54  48  80 N9        29.96R
ALMA           CLOUDY    49  40  69 NW13G24   30.01R
ANN ARBOR      CLOUDY    53  47  79 N10       29.94R
BAD AXE        CLOUDY    50  49  98 N17       29.91R
CARO           RAIN      50  48  93 NW15G22   29.94R
DETROIT CITY   CLOUDY    56  46  69 N10G18    29.92R
DETROIT        MOCLDY    54  47  77 NW15G21   29.93R
FLINT          CLOUDY    53  47  79 NW17G25   29.95R
GROSSE ILE     CLOUDY    55  48  76 NW17G28   29.91R
HILLSDALE      CLOUDY    55  50  82 NW9       29.97R
HOWELL         CLOUDY    51  48  91 NW14G21   29.96R

CITY           SKY/WX    TMP DP  RH WIND       PRES   REMARKS
JACKSON        CLOUDY    53  48  83 VRB6      29.97R
LAMBERTVILLE   CLOUDY    54  48  82 NW8G16    29.95R
LANSING        CLOUDY    52  44  74 NW18G25   29.99R
LAPEER         DRIZZLE   50  48  93 N9G18     29.92R
MASON          CLOUDY    53  46  77 N10G20    29.97R
MONROE         CLOUDY    54  48  82 NW15      29.92R
MT. CLEMENS    CLOUDY    53  48  84 NW9G20    29.88R
PONTIAC        CLOUDY    51  48  89 NW12      29.92R
PORT HOPE        N/A     53  46  77 VRB6      29.89R
PORT HURON     RAIN      50  48  93 NW8       29.89R
TRI CITIES     CLOUDY    51  42  71 N20       29.98R
TROY           CLOUDY    54  48  80 NW10G23   29.93R
SAGINAW HB     CLOUDY    52  43  71 N15G25    29.96R
$$
MIZ043>046-050>051-056>058-064>065-071>073-077>080-220200-
SOUTHWEST LOWER MICHIGAN

CITY           SKY/WX    TMP DP  RH WIND       PRES   REMARKS
BATTLE CREEK   MOCLDY    53  45  74 N13       30.01R
BENTON HARBOR  CLOUDY    55  46  71 NW9G21    30.06R
BIG RAPIDS     CLOUDY    46  42  84 N15G22    30.03R
COLDWATER      CLOUDY    56  49  76 NW12G17   29.99R
FREMONT        CLOUDY    48  38  68 N13G21    30.05R
HOLLAND        MOCLDY    52  43  71 NW13G18   30.06R
GRAND RAPIDS   CLOUDY    51  44  77 N13       30.04R
IONIA          CLOUDY    50  43  77 N13G25    30.02R
KALAMAZOO      PTCLDY    52  45  77 N13       30.03R
LUDINGTON      PTCLDY    48  42  79 N9        30.08R
MARSHALL       CLOUDY    54  47  79 NW7G18    29.98R
MOUNT PLEASANT CLOUDY    48  41  75 NW12      30.00R
MUSKEGON       PTCLDY    50  40  68 N13       30.07R
SOUTH HAVEN    CLOUDY    55  46  71 N13G21    30.06R
$$
MIZ016>042-220200-
NORTHERN LOWER MICHIGAN

CITY           SKY/WX    TMP DP  RH WIND       PRES   REMARKS
BEAVER ISLAND  CLOUDY    47  40  77 NW14G21   30.06R
BELLAIRE       CLOUDY    48  40  74 NW7       30.04R
CADILLAC       CLOUDY    44  40  85 NW10G22   30.02R
CHARLEVOIX     CLOUDY    50  41  70 N15G25    30.07R
FRANKFORT      CLOUDY    49  38  66 N10G28    30.08R
GAYLORD        CLOUDY    45  37  73 VRB7      30.00R
GRAYLING       CLOUDY    47  41  81 NW10      30.01R
HARBOR SPRINGS CLOUDY    48  38  67 NW8       30.03R
HOUGHTON LAKE  CLOUDY    46  38  73 N10G23    30.00R
MANISTEE       CLOUDY    48  37  66 N13G23    30.08R
OSCODA         CLOUDY    47  44  90 NW12      29.93R
PELLSTON       CLOUDY    48  40  73 NW12      30.03R
ROGERS CITY    CLOUDY    50  42  74 N13G21    29.98R
TRAVERSE CITY  CLOUDY    49  39  68 NW10G18   30.05R
$$
MIZ007>008-015-220200-
EASTERN UPPER MICHIGAN

CITY           SKY/WX    TMP DP  RH WIND       PRES   REMARKS
KINROSS        CLOUDY    48  39  71 NW8       29.99R
MACKINAC ISLAN CLOUDY    47  40  77 NW13      30.01R
NEWBERRY       CLOUDY    44  38  81 NW9G18    30.04R
S. S. MARIE    CLOUDY    49  36  61 N13G23    29.99R
MUNISING         N/A     49  40  71 N15       30.10R
$$
MIZ004>006-011>014-085-220200-
CENTRAL UPPER MICHIGAN

CITY           SKY/WX    TMP DP  RH WIND       PRES   REMARKS
MANISTIQUE     CLOUDY    45  38  77 NW10G18   30.07R
ESCANABA       CLOUDY    46  37  71 N7        30.11S
MENOMINEE      CLEAR     46  37  71 CALM      30.12R
SAWYER-GWINN   CLOUDY    43  37  81 NW6       30.11R
$$
MIZ001>003-009>011-084-220200-
WESTERN UPPER MICHIGAN

CITY           SKY/WX    TMP DP  RH WIND       PRES   REMARKS
IRON MOUNTAIN  CLEAR     43  37  79 NW5       30.11R
HOUGHTON       CLEAR     38  35  89 N3        30.13R
COPPER HARBOR    N/A     44  39  82 N6        30.14R
IRONWOOD       CLEAR     43  43 100 W3        30.13R
$$

ABBREVIATIONS USED IN REMARKS
   TC - TEMPERATURE IN CELSIUS
  WCI - WIND CHILL INDEX
   HX - HEAT INDEX
  VSB - VISIBILITY




USA.gov is the U.S. government's official web portal to all federal, state and local government web resources and services.